Terminal Aerodrome Forecast
Issued by NWS Portland, OR

Home | Current Version | Previous Version | Text Only | Print | Product List | Glossary On
Versions: 1 2 3 4 5 6 7 8 9 10 11 12 13 14 15 16 17 18 19 20 21 22 23 24 25 26 27 28 29 30 31 32 33 34 35 36 37 38
000
FTUS46 KPQR 262323
TAFSLE
TAF
KSLE 262323Z 2700/2724 08004KT 4SM BR SCT003 BKN200
     FM270200 00000KT 2SM BR BKN004
     FM270700 00000KT 1/2SM FG VV002
     FM272000 18003KT 3SM BR OVC009
     FM272200 18005KT 4SM BR OVC015=

USA.gov is the U.S. government's official web portal to all federal, state and local government web resources and services.